Year,Month,Day,Hour,Minute,Value (Times are PST for temperature in C)
2012,09,09,00,00,16.30
2012,09,09,00,01,16.30
2012,09,09,00,02,16.30
2012,09,09,00,03,16.30
2012,09,09,00,04,16.30
2012,09,09,00,05,16.30
2012,09,09,00,06,16.20
2012,09,09,00,07,16.20
2012,09,09,00,08,16.20
2012,09,09,00,09,16.20
2012,09,09,00,10,16.20
2012,09,09,00,11,16.20
2012,09,09,00,12,16.20
2012,09,09,00,13,16.20
2012,09,09,00,14,16.20
2012,09,09,00,15,16.20
2012,09,09,00,16,16.20
2012,09,09,00,17,16.20
2012,09,09,00,18,16.20
2012,09,09,00,19,16.20
2012,09,09,00,20,16.20
2012,09,09,00,21,16.20
2012,09,09,00,22,16.20
2012,09,09,00,23,16.20
2012,09,09,00,24,16.20
2012,09,09,00,25,16.20
2012,09,09,00,26,16.20
2012,09,09,00,27,16.20
2012,09,09,00,28,16.20
2012,09,09,00,29,16.20
2012,09,09,00,30,16.20
2012,09,09,00,31,16.10
2012,09,09,00,32,16.10
2012,09,09,00,33,16.10
2012,09,09,00,34,16.10
2012,09,09,00,35,16.10
2012,09,09,00,36,16.10
2012,09,09,00,37,16.10
2012,09,09,00,38,16.10
2012,09,09,00,39,16.10
2012,09,09,00,40,16.10
2012,09,09,00,41,16.10
2012,09,09,00,42,16.10
2012,09,09,00,43,16.00
2012,09,09,00,44,16.00
2012,09,09,00,45,16.00
2012,09,09,00,46,16.00
2012,09,09,00,47,16.00
2012,09,09,00,48,16.00
2012,09,09,00,49,16.00
2012,09,09,00,50,16.00
2012,09,09,00,51,15.90
2012,09,09,00,52,15.90
2012,09,09,00,53,15.90
2012,09,09,00,54,15.90
2012,09,09,00,55,15.90
2012,09,09,00,56,15.90
2012,09,09,00,57,15.90
2012,09,09,00,58,15.90
2012,09,09,00,59,15.80
2012,09,09,01,00,15.80
2012,09,09,01,01,15.80
2012,09,09,01,02,15.80
2012,09,09,01,03,15.80
2012,09,09,01,04,15.80
2012,09,09,01,05,15.80
2012,09,09,01,06,15.80
2012,09,09,01,07,15.80
2012,09,09,01,08,15.80
2012,09,09,01,09,15.80
2012,09,09,01,10,15.80
2012,09,09,01,11,15.80
2012,09,09,01,12,15.80
2012,09,09,01,13,15.80
2012,09,09,01,14,15.70
2012,09,09,01,15,15.70
2012,09,09,01,16,15.70
2012,09,09,01,17,15.70
2012,09,09,01,18,15.70
2012,09,09,01,19,15.70
2012,09,09,01,20,15.70
2012,09,09,01,21,15.70
2012,09,09,01,22,15.70
2012,09,09,01,23,15.70
2012,09,09,01,24,15.70
2012,09,09,01,25,15.70
2012,09,09,01,26,15.70
2012,09,09,01,27,15.60
2012,09,09,01,28,15.70
2012,09,09,01,29,15.60
2012,09,09,01,30,15.60
2012,09,09,01,31,15.60
2012,09,09,01,32,15.60
2012,09,09,01,33,15.60
2012,09,09,01,34,15.60
2012,09,09,01,35,15.50
2012,09,09,01,36,15.50
2012,09,09,01,37,15.50
2012,09,09,01,38,15.40
2012,09,09,01,39,15.40
2012,09,09,01,40,15.40
2012,09,09,01,41,15.40
2012,09,09,01,42,15.40
2012,09,09,01,43,15.50
2012,09,09,01,44,15.50
2012,09,09,01,45,15.50
2012,09,09,01,46,15.50
2012,09,09,01,47,15.50
2012,09,09,01,48,15.50
2012,09,09,01,49,15.50
2012,09,09,01,50,15.50
2012,09,09,01,51,15.50
2012,09,09,01,52,15.50
2012,09,09,01,53,15.50
2012,09,09,01,54,15.40
2012,09,09,01,55,15.40
2012,09,09,01,56,15.40
2012,09,09,01,57,15.40
2012,09,09,01,58,15.40
2012,09,09,01,59,15.40
2012,09,09,02,00,15.40
2012,09,09,02,01,15.40
2012,09,09,02,02,15.40
2012,09,09,02,03,15.40
2012,09,09,02,04,15.40
2012,09,09,02,05,15.40
2012,09,09,02,06,15.40
2012,09,09,02,07,15.40
2012,09,09,02,08,15.30
2012,09,09,02,09,15.30
2012,09,09,02,10,15.30
2012,09,09,02,11,15.30
2012,09,09,02,12,15.30
2012,09,09,02,13,15.30
2012,09,09,02,14,15.30
2012,09,09,02,15,15.30
2012,09,09,02,16,15.30
2012,09,09,02,17,15.30
2012,09,09,02,18,15.30
2012,09,09,02,19,15.30
2012,09,09,02,20,15.30
2012,09,09,02,21,15.30
2012,09,09,02,22,15.30
2012,09,09,02,23,15.30
2012,09,09,02,24,15.30
2012,09,09,02,25,15.30
2012,09,09,02,26,15.30
2012,09,09,02,27,15.20
2012,09,09,02,28,15.20
2012,09,09,02,29,15.20
2012,09,09,02,30,15.20
2012,09,09,02,31,15.20
2012,09,09,02,32,15.20
2012,09,09,02,33,15.20
2012,09,09,02,34,15.20
2012,09,09,02,35,15.20
2012,09,09,02,36,15.20
2012,09,09,02,37,15.20
2012,09,09,02,38,15.20
2012,09,09,02,39,15.20
2012,09,09,02,40,15.20
2012,09,09,02,41,15.20
2012,09,09,02,42,15.20
2012,09,09,02,43,15.20
2012,09,09,02,44,15.20
2012,09,09,02,45,15.20
2012,09,09,02,46,15.10
2012,09,09,02,47,15.10
2012,09,09,02,48,15.10
2012,09,09,02,49,15.10
2012,09,09,02,50,15.10
2012,09,09,02,51,15.10
2012,09,09,02,52,15.10
2012,09,09,02,53,15.10
2012,09,09,02,54,15.10
2012,09,09,02,55,15.10
2012,09,09,02,56,15.00
2012,09,09,02,57,15.00
2012,09,09,02,58,15.00
2012,09,09,02,59,15.00
2012,09,09,03,00,15.00
2012,09,09,03,01,15.00
2012,09,09,03,02,15.00
2012,09,09,03,03,15.00
2012,09,09,03,04,15.00
2012,09,09,03,05,15.00
2012,09,09,03,06,15.00
2012,09,09,03,07,15.00
2012,09,09,03,08,15.00
2012,09,09,03,09,15.00
2012,09,09,03,10,15.00
2012,09,09,03,11,15.00
2012,09,09,03,12,15.00
2012,09,09,03,13,15.00
2012,09,09,03,14,15.00
2012,09,09,03,15,15.00
2012,09,09,03,16,15.00
2012,09,09,03,17,15.00
2012,09,09,03,18,15.00
2012,09,09,03,19,14.90
2012,09,09,03,20,14.90
2012,09,09,03,21,14.80
2012,09,09,03,22,14.80
2012,09,09,03,23,14.80
2012,09,09,03,24,14.80
2012,09,09,03,25,14.70
2012,09,09,03,26,14.70
2012,09,09,03,27,14.70
2012,09,09,03,28,14.70
2012,09,09,03,29,14.80
2012,09,09,03,30,14.80
2012,09,09,03,31,14.80
2012,09,09,03,32,14.80
2012,09,09,03,33,14.80
2012,09,09,03,34,14.80
2012,09,09,03,35,14.90
2012,09,09,03,36,14.90
2012,09,09,03,37,14.90
2012,09,09,03,38,14.90
2012,09,09,03,39,14.90
2012,09,09,03,40,14.90
2012,09,09,03,41,14.90
2012,09,09,03,42,14.90
2012,09,09,03,43,14.90
2012,09,09,03,44,14.90
2012,09,09,03,45,14.90
2012,09,09,03,46,14.90
2012,09,09,03,47,14.90
2012,09,09,03,48,14.90
2012,09,09,03,49,14.90
2012,09,09,03,50,14.90
2012,09,09,03,51,14.80
2012,09,09,03,52,14.80
2012,09,09,03,53,14.80
2012,09,09,03,54,14.70
2012,09,09,03,55,14.70
2012,09,09,03,56,14.70
2012,09,09,03,57,14.60
2012,09,09,03,58,14.60
2012,09,09,03,59,14.60
2012,09,09,04,00,14.60
2012,09,09,04,01,14.60
2012,09,09,04,02,14.60
2012,09,09,04,03,14.50
2012,09,09,04,04,14.50
2012,09,09,04,05,14.50
2012,09,09,04,06,14.50
2012,09,09,04,07,14.40
2012,09,09,04,08,14.40
2012,09,09,04,09,14.40
2012,09,09,04,10,14.40
2012,09,09,04,11,14.40
2012,09,09,04,12,14.40
2012,09,09,04,13,14.40
2012,09,09,04,14,14.40
2012,09,09,04,15,14.40
2012,09,09,04,16,14.30
2012,09,09,04,17,14.30
2012,09,09,04,18,14.30
2012,09,09,04,19,14.30
2012,09,09,04,20,14.30
2012,09,09,04,21,14.30
2012,09,09,04,22,14.20
2012,09,09,04,23,14.20
2012,09,09,04,24,14.20
2012,09,09,04,25,14.20
2012,09,09,04,26,14.20
2012,09,09,04,27,14.10
2012,09,09,04,28,14.00
2012,09,09,04,29,13.90
2012,09,09,04,30,13.90
2012,09,09,04,31,13.80
2012,09,09,04,32,13.80
2012,09,09,04,33,13.70
2012,09,09,04,34,13.60
2012,09,09,04,35,13.60
2012,09,09,04,36,13.60
2012,09,09,04,37,13.50
2012,09,09,04,38,13.50
2012,09,09,04,39,13.40
2012,09,09,04,40,13.40
2012,09,09,04,41,13.40
2012,09,09,04,42,13.40
2012,09,09,04,43,13.40
2012,09,09,04,44,13.40
2012,09,09,04,45,13.40
2012,09,09,04,46,13.40
2012,09,09,04,47,13.40
2012,09,09,04,48,13.40
2012,09,09,04,49,13.30
2012,09,09,04,50,13.30
2012,09,09,04,51,13.30
2012,09,09,04,52,13.30
2012,09,09,04,53,13.30
2012,09,09,04,54,13.30
2012,09,09,04,55,13.20
2012,09,09,04,56,13.20
2012,09,09,04,57,13.20
2012,09,09,04,58,13.20
2012,09,09,04,59,13.20
2012,09,09,05,00,13.20
2012,09,09,05,01,13.20
2012,09,09,05,02,13.20
2012,09,09,05,03,13.20
2012,09,09,05,04,13.20
2012,09,09,05,05,13.20
2012,09,09,05,06,13.20
2012,09,09,05,07,13.20
2012,09,09,05,08,13.20
2012,09,09,05,09,13.20
2012,09,09,05,10,13.20
2012,09,09,05,11,13.20
2012,09,09,05,12,13.20
2012,09,09,05,13,13.10
2012,09,09,05,14,13.10
2012,09,09,05,15,13.10
2012,09,09,05,16,13.10
2012,09,09,05,17,13.10
2012,09,09,05,18,13.00
2012,09,09,05,19,13.00
2012,09,09,05,20,13.00
2012,09,09,05,21,13.00
2012,09,09,05,22,13.00
2012,09,09,05,23,13.00
2012,09,09,05,24,13.00
2012,09,09,05,25,13.00
2012,09,09,05,26,12.90
2012,09,09,05,27,12.90
2012,09,09,05,28,12.90
2012,09,09,05,29,12.90
2012,09,09,05,30,12.90
2012,09,09,05,31,12.80
2012,09,09,05,32,12.80
2012,09,09,05,33,12.80
2012,09,09,05,34,12.80
2012,09,09,05,35,12.70
2012,09,09,05,36,12.70
2012,09,09,05,37,12.70
2012,09,09,05,38,12.60
2012,09,09,05,39,12.50
2012,09,09,05,40,12.50
2012,09,09,05,41,12.40
2012,09,09,05,42,12.30
2012,09,09,05,43,12.30
2012,09,09,05,44,12.30
2012,09,09,05,45,12.20
2012,09,09,05,46,12.20
2012,09,09,05,47,12.20
2012,09,09,05,48,12.10
2012,09,09,05,49,12.10
2012,09,09,05,50,12.10
2012,09,09,05,51,12.10
2012,09,09,05,52,12.10
2012,09,09,05,53,12.10
2012,09,09,05,54,12.10
2012,09,09,05,55,12.20
2012,09,09,05,56,12.20
2012,09,09,05,57,12.20
2012,09,09,05,58,12.20
2012,09,09,05,59,12.20
2012,09,09,06,00,12.20
2012,09,09,06,01,12.10
2012,09,09,06,02,12.10
2012,09,09,06,03,12.10
2012,09,09,06,04,12.10
2012,09,09,06,05,12.10
2012,09,09,06,06,12.00
2012,09,09,06,07,12.00
2012,09,09,06,08,11.90
2012,09,09,06,09,11.90
2012,09,09,06,10,11.90
2012,09,09,06,11,11.80
2012,09,09,06,12,11.80
2012,09,09,06,13,11.80
2012,09,09,06,14,11.80
2012,09,09,06,15,11.70
2012,09,09,06,16,11.70
2012,09,09,06,17,11.70
2012,09,09,06,18,11.70
2012,09,09,06,19,11.60
2012,09,09,06,20,11.60
2012,09,09,06,21,11.60
2012,09,09,06,22,11.60
2012,09,09,06,23,11.60
2012,09,09,06,24,11.50
2012,09,09,06,25,11.50
2012,09,09,06,26,11.50
2012,09,09,06,27,11.50
2012,09,09,06,28,11.40
2012,09,09,06,29,11.40
2012,09,09,06,30,11.40
2012,09,09,06,31,11.40
2012,09,09,06,32,11.40
2012,09,09,06,33,11.40
2012,09,09,06,34,11.40
2012,09,09,06,35,11.30
2012,09,09,06,36,11.30
2012,09,09,06,37,11.30
2012,09,09,06,38,11.30
2012,09,09,06,39,11.30
2012,09,09,06,40,11.30
2012,09,09,06,41,11.30
2012,09,09,06,42,11.30
2012,09,09,06,43,11.30
2012,09,09,06,44,11.30
2012,09,09,06,45,11.30
2012,09,09,06,46,11.30
2012,09,09,06,47,11.30
2012,09,09,06,48,11.30
2012,09,09,06,49,11.30
2012,09,09,06,50,11.30
2012,09,09,06,51,11.30
2012,09,09,06,52,11.30
2012,09,09,06,53,11.30
2012,09,09,06,54,11.30
2012,09,09,06,55,11.40
2012,09,09,06,56,11.40
2012,09,09,06,57,11.40
2012,09,09,06,58,11.50
2012,09,09,06,59,11.50
2012,09,09,07,00,11.50
2012,09,09,07,01,11.60
2012,09,09,07,02,11.60
2012,09,09,07,03,11.60
2012,09,09,07,04,11.60
2012,09,09,07,05,11.70
2012,09,09,07,06,11.70
2012,09,09,07,07,11.80
2012,09,09,07,08,11.80
2012,09,09,07,09,11.80
2012,09,09,07,10,11.90
2012,09,09,07,11,11.90
2012,09,09,07,12,12.00
2012,09,09,07,13,12.00
2012,09,09,07,14,12.10
2012,09,09,07,15,12.10
2012,09,09,07,16,12.20
2012,09,09,07,17,12.20
2012,09,09,07,18,12.20
2012,09,09,07,19,12.30
2012,09,09,07,20,12.30
2012,09,09,07,21,12.40
2012,09,09,07,22,12.40
2012,09,09,07,23,12.40
2012,09,09,07,24,12.40
2012,09,09,07,25,12.50
2012,09,09,07,26,12.50
2012,09,09,07,27,12.60
2012,09,09,07,28,12.60
2012,09,09,07,29,12.70
2012,09,09,07,30,12.70
2012,09,09,07,31,12.70
2012,09,09,07,32,12.70
2012,09,09,07,33,12.80
2012,09,09,07,34,12.80
2012,09,09,07,35,12.80
2012,09,09,07,36,12.80
2012,09,09,07,37,12.80
2012,09,09,07,38,12.80
2012,09,09,07,39,12.80
2012,09,09,07,40,12.90
2012,09,09,07,41,12.90
2012,09,09,07,42,12.90
2012,09,09,07,43,13.00
2012,09,09,07,44,13.00
2012,09,09,07,45,13.10
2012,09,09,07,46,13.10
2012,09,09,07,47,13.20
2012,09,09,07,48,13.30
2012,09,09,07,49,13.40
2012,09,09,07,50,13.50
2012,09,09,07,51,13.50
2012,09,09,07,52,13.60
2012,09,09,07,53,13.70
2012,09,09,07,54,13.70
2012,09,09,07,55,13.80
2012,09,09,07,56,13.90
2012,09,09,07,57,13.90
2012,09,09,07,58,14.00
2012,09,09,07,59,14.00
2012,09,09,08,00,14.10
2012,09,09,08,01,14.10
2012,09,09,08,02,14.20
2012,09,09,08,03,14.20
2012,09,09,08,04,14.20
2012,09,09,08,05,14.30
2012,09,09,08,06,14.30
2012,09,09,08,07,14.40
2012,09,09,08,08,14.40
2012,09,09,08,09,14.50
2012,09,09,08,10,14.50
2012,09,09,08,11,14.60
2012,09,09,08,12,14.60
2012,09,09,08,13,14.60
2012,09,09,08,14,14.70
2012,09,09,08,15,14.70
2012,09,09,08,16,14.80
2012,09,09,08,17,14.80
2012,09,09,08,18,14.90
2012,09,09,08,19,15.00
2012,09,09,08,20,15.00
2012,09,09,08,21,15.00
2012,09,09,08,22,15.00
2012,09,09,08,23,15.10
2012,09,09,08,24,15.20
2012,09,09,08,25,15.20
2012,09,09,08,26,15.20
2012,09,09,08,27,15.20
2012,09,09,08,28,15.30
2012,09,09,08,29,15.30
2012,09,09,08,30,15.30
2012,09,09,08,31,15.30
2012,09,09,08,32,15.30
2012,09,09,08,33,15.40
2012,09,09,08,34,15.40
2012,09,09,08,35,15.40
2012,09,09,08,36,15.40
2012,09,09,08,37,15.40
2012,09,09,08,38,15.40
2012,09,09,08,39,15.40
2012,09,09,08,40,15.40
2012,09,09,08,41,15.40
2012,09,09,08,42,15.40
2012,09,09,08,43,15.40
2012,09,09,08,44,15.40
2012,09,09,08,45,15.40
2012,09,09,08,46,15.40
2012,09,09,08,47,15.40
2012,09,09,08,48,15.40
2012,09,09,08,49,15.40
2012,09,09,08,50,15.40
2012,09,09,08,51,15.40
2012,09,09,08,52,15.40
2012,09,09,08,53,15.40
2012,09,09,08,54,15.50
2012,09,09,08,55,15.50
2012,09,09,08,56,15.50
2012,09,09,08,57,15.50
2012,09,09,08,58,15.50
2012,09,09,08,59,15.50
2012,09,09,09,00,15.50
2012,09,09,09,01,15.50
2012,09,09,09,02,15.50
2012,09,09,09,03,15.50
2012,09,09,09,04,15.50
2012,09,09,09,05,15.50
2012,09,09,09,06,15.50
2012,09,09,09,07,15.50
2012,09,09,09,08,15.50
2012,09,09,09,09,15.50
2012,09,09,09,10,15.50
2012,09,09,09,11,15.50
2012,09,09,09,12,15.50
2012,09,09,09,13,15.50
2012,09,09,09,14,15.50
2012,09,09,09,15,15.50
2012,09,09,09,16,15.50
2012,09,09,09,17,15.50
2012,09,09,09,18,15.50
2012,09,09,09,19,15.60
2012,09,09,09,20,15.60
2012,09,09,09,21,15.60
2012,09,09,09,22,15.60
2012,09,09,09,23,15.60
2012,09,09,09,24,15.60
2012,09,09,09,25,15.60
2012,09,09,09,26,15.60
2012,09,09,09,27,15.60
2012,09,09,09,28,15.60
2012,09,09,09,29,15.60
2012,09,09,09,30,15.60
2012,09,09,09,31,15.60
2012,09,09,09,32,15.60
2012,09,09,09,33,15.60
2012,09,09,09,34,15.60
2012,09,09,09,35,15.60
2012,09,09,09,36,15.60
2012,09,09,09,37,15.60
2012,09,09,09,38,15.60
2012,09,09,09,39,15.70
2012,09,09,09,40,15.70
2012,09,09,09,41,15.70
2012,09,09,09,42,15.70
2012,09,09,09,43,15.70
2012,09,09,09,44,15.70
2012,09,09,09,45,15.70
2012,09,09,09,46,15.70
2012,09,09,09,47,15.70
2012,09,09,09,48,15.70
2012,09,09,09,49,15.70
2012,09,09,09,50,15.70
2012,09,09,09,51,15.70
2012,09,09,09,52,15.70
2012,09,09,09,53,15.70
2012,09,09,09,54,15.70
2012,09,09,09,55,15.70
2012,09,09,09,56,15.80
2012,09,09,09,57,15.70
2012,09,09,09,58,15.70
2012,09,09,09,59,15.70
2012,09,09,10,00,15.70
2012,09,09,10,01,15.70
2012,09,09,10,02,15.70
2012,09,09,10,03,15.70
2012,09,09,10,04,15.60
2012,09,09,10,05,15.60
2012,09,09,10,06,15.60
2012,09,09,10,07,15.60
2012,09,09,10,08,15.60
2012,09,09,10,09,15.50
2012,09,09,10,10,15.50
2012,09,09,10,11,15.50
2012,09,09,10,12,15.50
2012,09,09,10,13,15.50
2012,09,09,10,14,15.50
2012,09,09,10,15,15.50
2012,09,09,10,16,15.50
2012,09,09,10,17,15.50
2012,09,09,10,18,15.50
2012,09,09,10,19,15.50
2012,09,09,10,20,15.50
2012,09,09,10,21,15.50
2012,09,09,10,22,15.50
2012,09,09,10,23,15.50
2012,09,09,10,24,15.50
2012,09,09,10,25,15.50
2012,09,09,10,26,15.60
2012,09,09,10,27,15.60
2012,09,09,10,28,15.60
2012,09,09,10,29,15.60
2012,09,09,10,30,15.70
2012,09,09,10,31,15.70
2012,09,09,10,32,15.80
2012,09,09,10,33,15.80
2012,09,09,10,34,15.80
2012,09,09,10,35,15.90
2012,09,09,10,36,15.90
2012,09,09,10,37,15.90
2012,09,09,10,38,16.00
2012,09,09,10,39,16.00
2012,09,09,10,40,16.00
2012,09,09,10,41,16.00
2012,09,09,10,42,16.10
2012,09,09,10,43,16.00
2012,09,09,10,44,16.00
2012,09,09,10,45,16.00
2012,09,09,10,46,16.00
2012,09,09,10,47,16.00
2012,09,09,10,48,16.00
2012,09,09,10,49,16.00
2012,09,09,10,50,16.00
2012,09,09,10,51,16.10
2012,09,09,10,52,16.10
2012,09,09,10,53,16.10
2012,09,09,10,54,16.10
2012,09,09,10,55,16.10
2012,09,09,10,56,16.10
2012,09,09,10,57,16.10
2012,09,09,10,58,16.10
2012,09,09,10,59,16.10
2012,09,09,11,00,16.10
2012,09,09,11,01,16.10
2012,09,09,11,02,16.10
2012,09,09,11,03,16.00
2012,09,09,11,04,16.00
2012,09,09,11,05,16.00
2012,09,09,11,06,15.90
2012,09,09,11,07,15.90
2012,09,09,11,08,15.90
2012,09,09,11,09,15.90
2012,09,09,11,10,15.90
2012,09,09,11,11,15.90
2012,09,09,11,12,15.90
2012,09,09,11,13,15.90
2012,09,09,11,14,16.00
2012,09,09,11,15,16.00
2012,09,09,11,16,16.00
2012,09,09,11,17,16.10
2012,09,09,11,18,16.10
2012,09,09,11,19,16.10
2012,09,09,11,20,16.20
2012,09,09,11,21,16.20
2012,09,09,11,22,16.20
2012,09,09,11,23,16.20
2012,09,09,11,24,16.20
2012,09,09,11,25,16.30
2012,09,09,11,26,16.30
2012,09,09,11,27,16.30
2012,09,09,11,28,16.30
2012,09,09,11,29,16.30
2012,09,09,11,30,16.40
2012,09,09,11,31,16.40
2012,09,09,11,32,16.50
2012,09,09,11,33,16.50
2012,09,09,11,34,16.60
2012,09,09,11,35,16.60
2012,09,09,11,36,16.70
2012,09,09,11,37,16.70
2012,09,09,11,38,16.80
2012,09,09,11,39,16.80
2012,09,09,11,40,16.90
2012,09,09,11,41,16.90
2012,09,09,11,42,16.90
2012,09,09,11,43,16.90
2012,09,09,11,44,16.80
2012,09,09,11,45,16.80
2012,09,09,11,46,16.70
2012,09,09,11,47,16.70
2012,09,09,11,48,16.70
2012,09,09,11,49,16.60
2012,09,09,11,50,16.60
2012,09,09,11,51,16.60
2012,09,09,11,52,16.60
2012,09,09,11,53,16.60
2012,09,09,11,54,16.60
2012,09,09,11,55,16.60
2012,09,09,11,56,16.60
2012,09,09,11,57,16.60
2012,09,09,11,58,16.60
2012,09,09,11,59,16.60
2012,09,09,12,00,16.60
2012,09,09,12,01,16.70
2012,09,09,12,02,16.70
2012,09,09,12,03,16.70
2012,09,09,12,04,16.70
2012,09,09,12,05,16.80
2012,09,09,12,06,16.80
2012,09,09,12,07,16.90
2012,09,09,12,08,16.90
2012,09,09,12,09,16.90
2012,09,09,12,10,16.90
2012,09,09,12,11,17.00
2012,09,09,12,12,17.00
2012,09,09,12,13,17.00
2012,09,09,12,14,17.00
2012,09,09,12,15,17.00
2012,09,09,12,16,16.90
2012,09,09,12,17,16.90
2012,09,09,12,18,16.90
2012,09,09,12,19,16.90
2012,09,09,12,20,16.90
2012,09,09,12,21,16.90
2012,09,09,12,22,16.90
2012,09,09,12,23,16.90
2012,09,09,12,24,16.90
2012,09,09,12,25,16.90
2012,09,09,12,26,16.90
2012,09,09,12,27,16.80
2012,09,09,12,28,16.80
2012,09,09,12,29,16.80
2012,09,09,12,30,16.80
2012,09,09,12,31,16.80
2012,09,09,12,32,16.80
2012,09,09,12,33,16.70
2012,09,09,12,34,16.70
2012,09,09,12,35,16.70
2012,09,09,12,36,16.70
2012,09,09,12,37,16.60
2012,09,09,12,38,16.60
2012,09,09,12,39,16.60
2012,09,09,12,40,16.60
2012,09,09,12,41,16.60
2012,09,09,12,42,16.60
2012,09,09,12,43,16.60
2012,09,09,12,44,16.60
2012,09,09,12,45,16.60
2012,09,09,12,46,16.60
2012,09,09,12,47,16.60
2012,09,09,12,48,16.60
2012,09,09,12,49,16.60
2012,09,09,12,50,16.60
2012,09,09,12,51,16.60
2012,09,09,12,52,16.60
2012,09,09,12,53,16.60
2012,09,09,12,54,16.60
2012,09,09,12,55,16.60
2012,09,09,12,56,16.60
2012,09,09,12,57,16.60
2012,09,09,12,58,16.60
2012,09,09,12,59,16.60
2012,09,09,13,00,16.50
2012,09,09,13,01,16.50
2012,09,09,13,02,16.50
2012,09,09,13,03,16.50
2012,09,09,13,04,16.50
2012,09,09,13,05,16.60
2012,09,09,13,06,16.60
2012,09,09,13,07,16.60
2012,09,09,13,08,16.60
2012,09,09,13,09,16.60
2012,09,09,13,10,16.60
2012,09,09,13,11,16.60
2012,09,09,13,12,16.60
2012,09,09,13,13,16.70
2012,09,09,13,14,16.70
2012,09,09,13,15,16.70
2012,09,09,13,16,16.70
2012,09,09,13,17,16.70
2012,09,09,13,18,16.70
2012,09,09,13,19,16.70
2012,09,09,13,20,16.70
2012,09,09,13,21,16.70
2012,09,09,13,22,16.70
2012,09,09,13,23,16.70
2012,09,09,13,24,16.70
2012,09,09,13,25,16.70
2012,09,09,13,26,16.70
2012,09,09,13,27,16.70
2012,09,09,13,28,16.70
2012,09,09,13,29,16.70
2012,09,09,13,30,16.70
2012,09,09,13,31,16.70
2012,09,09,13,32,16.70
2012,09,09,13,33,16.70
2012,09,09,13,34,16.60
2012,09,09,13,35,16.60
2012,09,09,13,36,16.60
2012,09,09,13,37,16.60
2012,09,09,13,38,16.60
2012,09,09,13,39,16.60
2012,09,09,13,40,16.50
2012,09,09,13,41,16.50
2012,09,09,13,42,16.50
2012,09,09,13,43,16.50
2012,09,09,13,44,16.50
2012,09,09,13,45,16.50
2012,09,09,13,46,16.50
2012,09,09,13,47,16.50
2012,09,09,13,48,16.50
2012,09,09,13,49,16.40
2012,09,09,13,50,16.40
2012,09,09,13,51,16.40
2012,09,09,13,52,16.40
2012,09,09,13,53,16.40
2012,09,09,13,54,16.40
2012,09,09,13,55,16.40
2012,09,09,13,56,16.40
2012,09,09,13,57,16.50
2012,09,09,13,58,16.50
2012,09,09,13,59,16.50
2012,09,09,14,00,16.50
2012,09,09,14,01,16.50
2012,09,09,14,02,16.50
2012,09,09,14,03,16.60
2012,09,09,14,04,16.60
2012,09,09,14,05,16.60
2012,09,09,14,06,16.60
2012,09,09,14,07,16.60
2012,09,09,14,08,16.60
2012,09,09,14,09,16.60
2012,09,09,14,10,16.60
2012,09,09,14,11,16.60
2012,09,09,14,12,16.60
2012,09,09,14,13,16.60
2012,09,09,14,14,16.60
2012,09,09,14,15,16.60
2012,09,09,14,16,16.70
2012,09,09,14,17,16.70
2012,09,09,14,18,16.70
2012,09,09,14,19,16.70
2012,09,09,14,20,16.70
2012,09,09,14,21,16.70
2012,09,09,14,22,16.70
2012,09,09,14,23,16.70
2012,09,09,14,24,16.70
2012,09,09,14,25,16.70
2012,09,09,14,26,16.70
2012,09,09,14,27,16.70
2012,09,09,14,28,16.80
2012,09,09,14,29,16.80
2012,09,09,14,30,16.80
2012,09,09,14,31,16.80
2012,09,09,14,32,16.80
2012,09,09,14,33,16.80
2012,09,09,14,34,16.80
2012,09,09,14,35,16.80
2012,09,09,14,36,16.80
2012,09,09,14,37,16.80
2012,09,09,14,38,16.80
2012,09,09,14,39,16.80
2012,09,09,14,40,16.80
2012,09,09,14,41,16.80
2012,09,09,14,42,16.80
2012,09,09,14,43,16.80
2012,09,09,14,44,16.80
2012,09,09,14,45,16.80
2012,09,09,14,46,16.80
2012,09,09,14,47,16.90
2012,09,09,14,48,16.90
2012,09,09,14,49,16.90
2012,09,09,14,50,16.90
2012,09,09,14,51,16.90
2012,09,09,14,52,16.80
2012,09,09,14,53,16.80
2012,09,09,14,54,16.80
2012,09,09,14,55,16.80
2012,09,09,14,56,16.70
2012,09,09,14,57,16.70
2012,09,09,14,58,16.70
2012,09,09,14,59,16.70
2012,09,09,15,00,16.60
2012,09,09,15,01,16.60
2012,09,09,15,02,16.60
2012,09,09,15,03,16.60
2012,09,09,15,04,16.50
2012,09,09,15,05,16.50
2012,09,09,15,06,16.50
2012,09,09,15,07,16.50
2012,09,09,15,08,16.50
2012,09,09,15,09,16.50
2012,09,09,15,10,16.50
2012,09,09,15,11,16.50
2012,09,09,15,12,16.50
2012,09,09,15,13,16.50
2012,09,09,15,14,16.50
2012,09,09,15,15,16.40
2012,09,09,15,16,16.40
2012,09,09,15,17,16.40
2012,09,09,15,18,16.40
2012,09,09,15,19,16.40
2012,09,09,15,20,16.40
2012,09,09,15,21,16.40
2012,09,09,15,22,16.40
2012,09,09,15,23,16.30
2012,09,09,15,24,16.30
2012,09,09,15,25,16.30
2012,09,09,15,26,16.30
2012,09,09,15,27,16.30
2012,09,09,15,28,16.30
2012,09,09,15,29,16.30
2012,09,09,15,30,16.40
2012,09,09,15,31,16.40
2012,09,09,15,32,16.40
2012,09,09,15,33,16.40
2012,09,09,15,34,16.40
2012,09,09,15,35,16.40
2012,09,09,15,36,16.40
2012,09,09,15,37,16.40
2012,09,09,15,38,16.40
2012,09,09,15,39,16.40
2012,09,09,15,40,16.40
2012,09,09,15,41,16.40
2012,09,09,15,42,16.40
2012,09,09,15,43,16.40
2012,09,09,15,44,16.30
2012,09,09,15,45,16.30
2012,09,09,15,46,16.30
2012,09,09,15,47,16.30
2012,09,09,15,48,16.20
2012,09,09,15,49,16.20
2012,09,09,15,50,16.20
2012,09,09,15,51,16.10
2012,09,09,15,52,16.10
2012,09,09,15,53,16.00
2012,09,09,15,54,15.90
2012,09,09,15,55,15.80
2012,09,09,15,56,15.80
2012,09,09,15,57,15.80
2012,09,09,15,58,15.80
2012,09,09,15,59,15.80
2012,09,09,16,00,15.80
2012,09,09,16,01,15.80
2012,09,09,16,02,15.80
2012,09,09,16,03,15.70
2012,09,09,16,04,15.70
2012,09,09,16,05,15.70
2012,09,09,16,06,15.60
2012,09,09,16,07,15.60
2012,09,09,16,08,15.60
2012,09,09,16,09,15.50
2012,09,09,16,10,15.50
2012,09,09,16,11,15.40
2012,09,09,16,12,15.40
2012,09,09,16,13,15.40
2012,09,09,16,14,15.40
2012,09,09,16,15,15.30
2012,09,09,16,16,15.30
2012,09,09,16,17,15.30
2012,09,09,16,18,15.30
2012,09,09,16,19,15.30
2012,09,09,16,20,15.30
2012,09,09,16,21,15.30
2012,09,09,16,22,15.30
2012,09,09,16,23,15.30
2012,09,09,16,24,15.20
2012,09,09,16,25,15.20
2012,09,09,16,26,15.20
2012,09,09,16,27,15.10
2012,09,09,16,28,15.10
2012,09,09,16,29,15.10
2012,09,09,16,30,15.00
2012,09,09,16,31,15.00
2012,09,09,16,32,15.00
2012,09,09,16,33,15.00
2012,09,09,16,34,15.00
2012,09,09,16,35,15.00
2012,09,09,16,36,15.00
2012,09,09,16,37,15.00
2012,09,09,16,38,14.90
2012,09,09,16,39,14.80
2012,09,09,16,40,14.80
2012,09,09,16,41,14.80
2012,09,09,16,42,14.80
2012,09,09,16,43,14.70
2012,09,09,16,44,14.70
2012,09,09,16,45,14.60
2012,09,09,16,46,14.60
2012,09,09,16,47,14.50
2012,09,09,16,48,14.50
2012,09,09,16,49,14.40
2012,09,09,16,50,14.40
2012,09,09,16,51,14.40
2012,09,09,16,52,14.40
2012,09,09,16,53,14.40
2012,09,09,16,54,14.40
2012,09,09,16,55,14.40
2012,09,09,16,56,14.40
2012,09,09,16,57,14.40
2012,09,09,16,58,14.50
2012,09,09,16,59,14.60
2012,09,09,17,00,14.60
2012,09,09,17,01,14.60
2012,09,09,17,02,14.70
2012,09,09,17,03,14.70
2012,09,09,17,04,14.80
2012,09,09,17,05,14.80
2012,09,09,17,06,14.90
2012,09,09,17,07,15.00
2012,09,09,17,08,15.00
2012,09,09,17,09,15.00
2012,09,09,17,10,15.00
2012,09,09,17,11,15.00
2012,09,09,17,12,15.10
2012,09,09,17,13,15.10
2012,09,09,17,14,15.20
2012,09,09,17,15,15.20
2012,09,09,17,16,15.20
2012,09,09,17,17,15.30
2012,09,09,17,18,15.30
2012,09,09,17,19,15.30